Change the Weather History Date:

Sunday, February 9, 2014

  Actual Average Record
Temperature  
Mean Temperature 26 °F -  
Max Temperature 30 °F 37 °F 57 °F (1949)
Min Temperature 21 °F 21 °F 7 °F (1959)
Degree Days  
Heating Degree Days 40    
Moisture  
Dew Point 19 °F    
Average Humidity 71    
Maximum Humidity 92    
Minimum Humidity 43    
Precipitation  
Precipitation 0.02 in - - ()
Sea Level Pressure  
Sea Level Pressure 30.04 in    
Wind  
Wind Speed 3 mph (NW)    
Max Wind Speed 10 mph    
Max Gust Speed 16 mph    
Visibility 8 miles    
Events Snow    
Averages and records for this station are not official NWS values.
T = Trace of Precipitation, MM = Missing Value Source: NWS Daily Summary

Daily Weather History Graph

Daily Weather History Graph

Search for Another Location

Airport or City:

Trip Planner

Search our weather history database for the weather conditions in past years. The results will help you decide how hot, cold, wet, or windy it might be!

Date:

Astronomy

Feb. 09, 2014 Rise Set
Actual Time 6:46 AM EST 5:09 PM EST
Civil Twilight 6:18 AM EST 5:38 PM EST
Nautical Twilight 5:45 AM EST 6:11 PM EST
Astronomical Twilight 5:13 AM EST 6:43 PM EST
Moon 12:45 PM EST (2/9) 2:50 AM EST (2/9)
Length of Visible Light 11h 20m
Length of Day
10h 22m
Waxing Gibbous, 77% of the Moon is Illuminated
Feb 9
Waxing Gibbous
Feb 14
Full
Feb 22
Last Quarter
Mar 1
New
Mar 8
First Quarter

Hourly Weather History & Observations

Time (EST) Temp. Windchill Dew Point Humidity Pressure Visibility Wind Dir Wind Speed Gust Speed Precip Events Conditions
12:53 AM 25.0 °F - 6.1 °F 45% 30.11 in 10.0 mi Calm Calm - N/A   Overcast
1:53 AM 25.0 °F - 5.0 °F 43% 30.12 in 10.0 mi Calm Calm - N/A   Overcast
2:53 AM 25.0 °F - 6.1 °F 45% 30.12 in 10.0 mi Calm Calm - N/A   Overcast
3:53 AM 24.1 °F 19.7 °F 6.1 °F 46% 30.11 in 10.0 mi Variable 3.5 mph - N/A   Overcast
4:53 AM 24.1 °F 18.2 °F 7.0 °F 48% 30.11 in 10.0 mi NNW 4.6 mph - N/A   Overcast
5:53 AM 23.0 °F 18.4 °F 7.0 °F 50% 30.10 in 10.0 mi Variable 3.5 mph - N/A   Scattered Clouds
6:53 AM 21.9 °F 15.7 °F 8.1 °F 55% 30.12 in 10.0 mi NW 4.6 mph - N/A   Mostly Cloudy
7:53 AM 23.0 °F 15.8 °F 9.0 °F 55% 30.12 in 10.0 mi Variable 5.8 mph - N/A   Partly Cloudy
8:53 AM 27.0 °F 19.5 °F 14.0 °F 58% 30.13 in 10.0 mi Variable 6.9 mph - N/A   Clear
9:35 AM 27.0 °F 21.6 °F 17.1 °F 66% 30.13 in 10.0 mi Variable 4.6 mph - N/A   Mostly Cloudy
9:53 AM 28.0 °F 20.0 °F 18.0 °F 66% 30.14 in 10.0 mi North 8.1 mph - N/A   Scattered Clouds
10:53 AM 30.0 °F 21.1 °F 19.0 °F 64% 30.12 in 10.0 mi NNE 10.4 mph - N/A   Clear
11:44 AM 30.0 °F 23.2 °F 19.9 °F 66% 30.09 in 10.0 mi North 6.9 mph - N/A   Mostly Cloudy
11:53 AM 30.0 °F 22.4 °F 19.9 °F 66% 30.09 in 10.0 mi NNE 8.1 mph - N/A   Mostly Cloudy
12:20 PM 30.9 °F 23.5 °F 21.0 °F 67% 30.07 in 10.0 mi NNE 8.1 mph 16.1 mph N/A   Scattered Clouds
12:29 PM 30.9 °F 23.5 °F 21.0 °F 67% 30.07 in 10.0 mi NNE 8.1 mph - N/A   Mostly Cloudy
12:53 PM 30.0 °F 23.2 °F 21.0 °F 69% 30.07 in 10.0 mi NE 6.9 mph - N/A   Overcast
1:53 PM 30.0 °F 26.5 °F 21.0 °F 69% 30.06 in 10.0 mi NE 3.5 mph - N/A   Overcast
2:53 PM 30.9 °F - 21.0 °F 67% 30.05 in 10.0 mi Calm Calm - N/A   Overcast
3:18 PM 30.9 °F - 21.0 °F 67% 30.03 in 10.0 mi Calm Calm - N/A   Overcast
3:53 PM 30.0 °F 26.5 °F 21.0 °F 69% 30.03 in 10.0 mi East 3.5 mph - N/A   Mostly Cloudy
4:00 PM 30.0 °F 24.1 °F 21.0 °F 69% 30.02 in 10.0 mi ENE 5.8 mph - N/A   Mostly Cloudy
4:23 PM 30.0 °F 25.2 °F 21.9 °F 72% 30.03 in 10.0 mi East 4.6 mph - N/A   Mostly Cloudy
4:53 PM 30.0 °F 23.2 °F 21.9 °F 72% 30.02 in 10.0 mi East 6.9 mph - N/A   Overcast
5:53 PM 28.9 °F - 23.0 °F 78% 30.04 in 10.0 mi Calm Calm - N/A   Overcast
6:28 PM 28.9 °F - 23.0 °F 78% 30.03 in 10.0 mi Calm Calm - N/A   Overcast
6:53 PM 28.9 °F - 23.0 °F 78% 30.02 in 10.0 mi Calm Calm - N/A   Overcast
7:16 PM 28.9 °F - 23.0 °F 78% 30.01 in 10.0 mi Calm Calm - N/A   Overcast
7:53 PM 28.9 °F - 21.9 °F 75% 30.00 in 10.0 mi Calm Calm - N/A   Overcast
8:35 PM 28.0 °F - 23.0 °F 81% 29.99 in 8.0 mi Calm Calm - 0.00 in Snow Light Snow
8:53 PM 28.0 °F - 23.0 °F 81% 29.99 in 2.0 mi Calm Calm - 0.00 in Snow Light Snow
9:33 PM 28.0 °F 24.2 °F 25.0 °F 88% 29.97 in 1.2 mi SW 3.5 mph - 0.00 in Snow Light Snow
9:50 PM 28.4 °F 24.6 °F 24.8 °F 86% 29.97 in 1.5 mi SW 3.5 mph - 0.00 in Snow Light Snow
9:53 PM 28.0 °F 24.2 °F 25.0 °F 88% 29.98 in 1.5 mi SW 3.5 mph - 0.00 in Snow Light Snow
9:57 PM 28.0 °F 22.8 °F 25.0 °F 88% 29.97 in 1.5 mi SW 4.6 mph - 0.01 in Snow Light Snow
10:01 PM 28.0 °F 22.8 °F 25.0 °F 88% 29.97 in 1.5 mi WSW 4.6 mph - 0.01 in Snow Light Snow
10:16 PM 28.0 °F 20.0 °F 24.1 °F 85% 29.97 in 1.5 mi West 8.1 mph - 0.01 in Snow Light Snow
10:53 PM 27.0 °F 19.5 °F 24.1 °F 89% 29.98 in 1.0 mi WSW 6.9 mph - 0.01 in Snow Light Snow
11:01 PM 27.0 °F 23.0 °F 24.1 °F 89% 29.97 in 1.0 mi WSW 3.5 mph - 0.01 in Snow Light Snow
11:11 PM 26.1 °F 18.4 °F 24.1 °F 92% 29.96 in 1.2 mi SW 6.9 mph - 0.01 in Snow Light Snow
11:24 PM 26.1 °F 19.4 °F 23.0 °F 88% 29.96 in 1.8 mi WSW 5.8 mph - 0.01 in Snow Light Snow
11:53 PM 26.1 °F 21.9 °F 23.0 °F 88% 29.96 in 1.2 mi SW 3.5 mph - 0.01 in Snow Light Snow